Regional Weather Roundup
Issued by NWS

Home | Current Version | Previous Version | Graphics & Text | Print | Product List | Glossary On
Versions: 1 2 3 4 5 6 7 8 9 10 11 12 13 14 15 16 17 18 19 20 21 22 23 24 25 26 27 28 29 30 31 32 33 34 35 36 37 38 39 40 41 42 43 44 45 46 47 48 49 50
000
ASUS43 KLSX 181259
RWRMO

WEATHER SUMMARY FOR MISSOURI
NATIONAL WEATHER SERVICE SPRINGFIELD MO
700 AM CST THU DEC 18 2014

NOTE: "FAIR" INDICATES FEW OR NO CLOUDS BELOW 12,000 FEET WITH NO
       SIGNIFICANT WEATHER AND/OR OBSTRUCTIONS TO VISIBILITY.
       CURRENT SKY AND/OR WEATHER CONDITIONS ARE NOT AVAILABLE FOR
       CHILLICOTHE AND FARMINGTON.

MOZ001>031-035>038-043-044-053-054-181400-
...NORTHERN AND WESTERN MISSOURI...

CITY           SKY/WX    TMP DP  RH WIND       PRES   REMARKS
KANSAS CTY INT LGT SNOW  28  26  92 E9        30.21R FOG     WCI  19
LEE`S SUMMIT   LGT SNOW  29  27  92 E7        30.21S FOG     WCI  22
ST JOSEPH      LGT SNOW  28  26  92 E6        30.24R VSB 1   WCI  22
CHILLICOTHE      N/A     27  24  89 E6        30.27R WCI  20

$$
MOZ066>068-077>081-088>096-101>105-181400-
...SOUTHWEST MISSOURI...

CITY           SKY/WX    TMP DP  RH WIND       PRES   REMARKS
SPRINGFIELD    CLOUDY    33  32  96 SE7       30.17R FOG     WCI  27
JOPLIN         CLOUDY    35  34  96 E5        30.17S FOG

$$
MOZ032>034-039>042-045>050-055>058-069>072-181400-
...CENTRAL MISSOURI...

CITY           SKY/WX    TMP DP  RH WIND       PRES   REMARKS
COLUMBIA       NOT AVBL
JEFFERSON CITY LGT SNOW  30  28  92 E5        30.25F FOG     WCI  25
ROLLA          LGT SNOW  30  28  92 E9        30.19F FOG     WCI  22
SEDALIA        LGT SNOW  31  29  92 E8        30.23R FOG     WCI  23

$$
MOZ051-052-059>065-181400-
...EAST CENTRAL MISSOURI...

CITY           SKY/WX    TMP DP  RH WIND       PRES   REMARKS
ST LOUIS INTL  FLURRIES  30  24  78 CALM      30.29S

$$
MOZ072>076-082>087-097>100-106>115-181400-
...SOUTH CENTRAL AND SOUTHEAST MISSOURI...

CITY           SKY/WX    TMP DP  RH WIND       PRES   REMARKS
CAPE GIRARDEAU CLOUDY    33  32  96 E5        30.27R FOG     WCI  29
POPLAR BLUFF   CLOUDY    34  31  88 NE5       30.26R FOG     WCI  30
WEST PLAINS    CLOUDY    32  31  96 E3        30.22R FOG

$$


USA.gov is the U.S. government's official web portal to all federal, state and local government web resources and services.